Location: Unspecified
(33.6682°S, 0.0000°E)
Time: 21:54:05
(UTC+00:00)

Vanguard 3 - Visible Passes

Search period start: 20 June 2019 00:00
Search period end: 30 June 2019 00:00
Orbit: 508 x 3263 km, 33.3° (Epoch: 19 June)

Date Brightness Start Highest point End Pass type
(mag) Time Alt. Az. Time Alt. Az. Time Alt. Az.
20 Jun 10.9 01:08:04 24° E 01:08:04 24° E 01:13:40 10° E visible
20 Jun 9.5 03:12:38 86° NE 03:12:38 86° NE 03:32:16 10° E visible
20 Jun 10.1 05:17:10 27° W 05:29:07 68° NNW 05:48:37 10° NE visible
21 Jun 10.2 02:02:45 44° E 02:02:45 44° E 02:14:23 10° E visible
21 Jun 9.6 04:07:19 58° W 04:12:03 79° NNW 04:32:18 10° ENE visible
21 Jun 10.5 06:11:53 11° W 06:28:34 49° NNW 06:46:29 10° NE visible
22 Jun 11.1 00:52:55 18° E 00:52:55 18° E 00:56:16 10° E visible
22 Jun 9.6 02:57:28 74° ENE 02:57:28 74° ENE 03:14:59 10° ENE visible
22 Jun 10.0 05:02:02 32° W 05:11:48 63° NNW 05:31:21 10° NE visible
23 Jun 10.5 01:47:39 36° E 01:47:39 36° E 01:57:00 10° E visible
23 Jun 9.5 03:52:13 66° WNW 03:54:58 75° NNW 04:14:59 10° ENE visible
23 Jun 10.5 05:56:47 14° W 06:11:10 45° NW 06:29:02 10° NNE visible
24 Jun 11.3 00:37:51 12° E 00:37:51 12° E 00:38:54 10° E visible
24 Jun 9.8 02:42:25 62° ENE 02:42:25 62° ENE 02:57:36 10° ENE visible
24 Jun 9.9 04:46:59 37° W 04:54:33 58° NNW 05:13:53 10° NE visible
25 Jun 10.7 01:32:38 28° E 01:32:38 28° E 01:39:37 10° E visible
25 Jun 9.5 03:37:12 70° NW 03:37:57 70° NNW 03:57:30 10° ENE visible
25 Jun 10.5 05:41:47 17° W 05:53:52 40° NW 06:11:19 10° NNE visible
26 Jun 10.0 02:27:27 50° ENE 02:27:27 50° ENE 02:40:08 10° ENE visible
26 Jun 9.8 04:32:01 42° WNW 04:37:24 52° NNW 04:56:14 10° NE visible
27 Jun 10.9 01:17:43 21° E 01:17:43 21° E 01:22:13 10° E visible
27 Jun 9.6 03:22:18 64° N 03:22:18 64° N 03:39:54 10° NE visible
27 Jun 10.4 05:26:52 20° W 05:36:40 35° NW 05:53:20 10° NNE visible
28 Jun 10.3 02:12:34 39° ENE 02:12:34 39° ENE 02:22:36 10° ENE visible
28 Jun 9.8 04:17:09 43° NW 04:20:22 47° NNW 04:38:22 10° NE visible
28 Jun 10.9 06:24:58 10° WNW 06:35:45 19° NW 06:47:42 10° N visible
29 Jun 11.1 01:02:52 15° ENE 01:02:52 15° ENE 01:04:50 10° ENE visible
29 Jun 9.8 03:07:27 52° NNE 03:07:27 52° NNE 03:22:09 10° NE visible
29 Jun 10.4 05:12:01 21° WNW 05:19:36 30° NW 05:35:02 10° NNE visible
